TimeEDT,TemperatureF,Dew PointF,Humidity,Sea Level PressureIn,VisibilityMPH,Wind Direction,Wind SpeedMPH,Gust SpeedMPH,PrecipitationIn,Events,Conditions,WindDirDegrees,DateUTC
12:56 AM,73.0,71.1,93,30.14,10.0,ENE,4.6,-,N/A,,Scattered Clouds,60,2013-07-15 04:56:00
1:56 AM,73.0,71.1,93,30.14,10.0,ENE,4.6,-,N/A,,Scattered Clouds,70,2013-07-15 05:56:00
2:56 AM,73.0,71.1,93,30.14,10.0,Calm,Calm,-,N/A,,Partly Cloudy,0,2013-07-15 06:56:00
3:56 AM,72.0,70.0,93,30.12,10.0,Calm,Calm,-,N/A,,Partly Cloudy,0,2013-07-15 07:56:00
4:56 AM,71.1,70.0,96,30.13,10.0,Calm,Calm,-,N/A,,Partly Cloudy,0,2013-07-15 08:56:00
5:56 AM,73.0,71.1,93,30.14,10.0,Calm,Calm,-,N/A,,Scattered Clouds,0,2013-07-15 09:56:00
6:56 AM,73.0,72.0,96,30.14,10.0,North,6.9,-,N/A,,Mostly Cloudy,360,2013-07-15 10:56:00
7:56 AM,73.0,72.0,96,30.15,10.0,Calm,Calm,-,N/A,,Mostly Cloudy,0,2013-07-15 11:56:00
8:45 AM,73.4,73.4,100,30.16,9.0,Variable,3.5,-,0.00,Rain,Light Rain,0,2013-07-15 12:45:00
8:56 AM,73.9,73.0,97,30.17,3.0,NNE,8.1,-,0.01,Rain,Light Rain,30,2013-07-15 12:56:00
9:18 AM,75.2,73.4,94,30.16,10.0,NNE,5.8,-,0.01,,Mostly Cloudy,30,2013-07-15 13:18:00
9:56 AM,77.0,73.0,88,30.17,10.0,ENE,4.6,-,0.01,,Mostly Cloudy,60,2013-07-15 13:56:00
10:56 AM,80.1,75.0,85,30.18,10.0,NNE,4.6,-,N/A,,Mostly Cloudy,30,2013-07-15 14:56:00
11:56 AM,82.9,77.0,82,30.17,9.0,NE,10.4,-,N/A,,Mostly Cloudy,50,2013-07-15 15:56:00
12:21 PM,84.2,75.2,74,30.16,10.0,East,15.0,23.0,N/A,,Mostly Cloudy,90,2013-07-15 16:21:00
12:56 PM,87.1,73.9,65,30.16,10.0,East,16.1,23.0,N/A,,Mostly Cloudy,80,2013-07-15 16:56:00
1:31 PM,84.2,73.4,70,30.15,10.0,ENE,18.4,24.2,N/A,,Mostly Cloudy,60,2013-07-15 17:31:00
1:56 PM,84.9,73.9,69,30.15,10.0,East,15.0,24.2,N/A,,Mostly Cloudy,80,2013-07-15 17:56:00
2:56 PM,84.9,73.9,69,30.14,10.0,ENE,18.4,-,N/A,,Mostly Cloudy,70,2013-07-15 18:56:00
3:56 PM,86.0,73.9,67,30.13,10.0,East,17.3,26.5,N/A,,Mostly Cloudy,90,2013-07-15 19:56:00
4:56 PM,82.9,73.0,72,30.12,10.0,East,18.4,26.5,N/A,,Mostly Cloudy,80,2013-07-15 20:56:00
5:56 PM,84.9,73.0,67,30.12,10.0,East,23.0,31.1,N/A,,Mostly Cloudy,80,2013-07-15 21:56:00
6:56 PM,84.0,73.0,69,30.12,10.0,East,17.3,25.3,N/A,,Mostly Cloudy,80,2013-07-15 22:56:00
7:56 PM,81.0,73.9,79,30.13,10.0,East,12.7,-,N/A,,Mostly Cloudy,80,2013-07-15 23:56:00
8:56 PM,80.1,73.9,81,30.15,10.0,East,6.9,-,N/A,,Mostly Cloudy,80,2013-07-16 00:56:00
9:56 PM,79.0,73.9,84,30.17,3.0,ESE,15.0,-,0.01,Rain,Heavy Rain,120,2013-07-16 01:56:00
10:14 PM,78.8,73.4,83,30.17,10.0,East,5.8,-,0.03,,Mostly Cloudy,90,2013-07-16 02:14:00
10:46 PM,77.0,75.2,94,30.17,10.0,ENE,4.6,-,0.03,,Mostly Cloudy,60,2013-07-16 02:46:00
10:56 PM,77.0,75.0,94,30.18,10.0,ENE,3.5,-,0.03,,Mostly Cloudy,60,2013-07-16 02:56:00
11:09 PM,77.0,75.2,94,30.19,9.0,East,11.5,18.4,N/A,Thunderstorm,Thunderstorm,90,2013-07-16 03:09:00
11:14 PM,75.2,73.4,94,30.19,2.0,ESE,12.7,27.6,0.05,Rain-Thunderstorm,Heavy Thunderstorms and Rain,110,2013-07-16 03:14:00
11:25 PM,75.2,73.4,94,30.19,5.0,ESE,6.9,-,0.13,Rain-Thunderstorm,Light Thunderstorms and Rain,110,2013-07-16 03:25:00
11:56 PM,77.0,73.9,90,30.19,9.0,East,6.9,-,0.14,Rain-Thunderstorm,Light Thunderstorms and Rain,90,2013-07-16 03:56:00